Location: Recife
(8.0585°S, 34.8848°W)
Time: 11:20:12
(UTC-03:00)

Altair - Pass Details

Date: 20 April 2026
Orbit: 1501 x 1682 km, 47.2° (Epoch: 20 May)

Event Time Altitude Azimuth Distance (km) Brightness Sun altitude
Rises 05:46:55 0° 203° (SSW) 4,800 9.7 5.3°
Reaches altitude 10° 05:50:41 10° 191° (SSW) 3,842 9.4 6.2°
Maximum altitude 05:58:44 28° 136° (SE) 2,735 9.3 8.1°
Drops below altitude 10° 06:06:54 10° 81° (E) 3,925 13.0 10.1°
Sets 06:10:44 0° 70° (ENE) 4,921 12.3 11.0°
